����������;��������(kWh)
2016-03-14 00:00;83,05
2016-03-14 00:15;82,35
2016-03-14 00:30;80,95
2016-03-14 00:45;81,35
2016-03-14 01:00;86,15
2016-03-14 01:15;109,65
2016-03-14 01:30;108,65
2016-03-14 01:45;100
2016-03-14 02:00;92,55
2016-03-14 02:15;89,75
2016-03-14 02:30;89,6
2016-03-14 02:45;87,55
2016-03-14 03:00;93,8
2016-03-14 03:15;89,2
2016-03-14 03:30;92,05
2016-03-14 03:45;90,8
2016-03-14 04:00;93,05
2016-03-14 04:15;87,3
2016-03-14 04:30;93
2016-03-14 04:45;86,5
2016-03-14 05:00;87,55
2016-03-14 05:15;86,9
2016-03-14 05:30;88,2
2016-03-14 05:45;85
2016-03-14 06:00;83,55
2016-03-14 06:15;84,9
2016-03-14 06:30;85,85
2016-03-14 06:45;83,55
2016-03-14 07:00;80,5
2016-03-14 07:15;87
2016-03-14 07:30;82,45
2016-03-14 07:45;86,1
2016-03-14 08:00;98,8
2016-03-14 08:15;85,85
2016-03-14 08:30;88,7
2016-03-14 08:45;91
2016-03-14 09:00;91,15
2016-03-14 09:15;96,6
2016-03-14 09:30;96,7
2016-03-14 09:45;103,05
2016-03-14 10:00;109
2016-03-14 10:15;102,6
2016-03-14 10:30;101
2016-03-14 10:45;106,05
2016-03-14 11:00;106,6
2016-03-14 11:15;107,7
2016-03-14 11:30;96,75
2016-03-14 11:45;98,55
2016-03-14 12:00;97,2
2016-03-14 12:15;98,2
2016-03-14 12:30;97,6
2016-03-14 12:45;102,7
2016-03-14 13:00;100,4
2016-03-14 13:15;98,35
2016-03-14 13:30;95,35
2016-03-14 13:45;97,2
2016-03-14 14:00;92,2
2016-03-14 14:15;96,15
2016-03-14 14:30;92,9
2016-03-14 14:45;94,4
2016-03-14 15:00;95,15
2016-03-14 15:15;100,05
2016-03-14 15:30;98,55
2016-03-14 15:45;101,45
2016-03-14 16:00;107,85
2016-03-14 16:15;104,55
2016-03-14 16:30;106,1
2016-03-14 16:45;108,65
2016-03-14 17:00;112,65
2016-03-14 17:15;107,85
2016-03-14 17:30;110,75
2016-03-14 17:45;108,05
2016-03-14 18:00;105,9
2016-03-14 18:15;103,75
2016-03-14 18:30;106,9
2016-03-14 18:45;108,9
2016-03-14 19:00;108,55
2016-03-14 19:15;104,5
2016-03-14 19:30;102,6
2016-03-14 19:45;101,1
2016-03-14 20:00;101
2016-03-14 20:15;100,3
2016-03-14 20:30;98,95
2016-03-14 20:45;95
2016-03-14 21:00;100,55
2016-03-14 21:15;98,4
2016-03-14 21:30;100,15
2016-03-14 21:45;97,65
2016-03-14 22:00;99,3
2016-03-14 22:15;92,7
2016-03-14 22:30;90,4
2016-03-14 22:45;94,25
2016-03-14 23:00;95,05
2016-03-14 23:15;96,95
2016-03-14 23:30;90
2016-03-14 23:45;91,05
2016-03-15 00:00;89,55
2016-03-15 00:15;91,35
2016-03-15 00:30;89,4
2016-03-15 00:45;88,7
2016-03-15 01:00;89,5
2016-03-15 01:15;84,25
2016-03-15 01:30;84,4
2016-03-15 01:45;105,05
2016-03-15 02:00;111,65
2016-03-15 02:15;102,55
2016-03-15 02:30;94,5
2016-03-15 02:45;91,15
2016-03-15 03:00;95,9
2016-03-15 03:15;92,25
2016-03-15 03:30;93
2016-03-15 03:45;95,4
2016-03-15 04:00;93,75
2016-03-15 04:15;90,45
2016-03-15 04:30;94,75
2016-03-15 04:45;90,85
2016-03-15 05:00;89,4
2016-03-15 05:15;92,05
2016-03-15 05:30;91,2
2016-03-15 05:45;93,95
2016-03-15 06:00;89,9
2016-03-15 06:15;94,2
2016-03-15 06:30;99
2016-03-15 06:45;98,1
2016-03-15 07:00;93,7
2016-03-15 07:15;100,3
2016-03-15 07:30;99,6
2016-03-15 07:45;108,75
2016-03-15 08:00;113,55
2016-03-15 08:15;124,6
2016-03-15 08:30;140,2
2016-03-15 08:45;158,65
2016-03-15 09:00;206,95
2016-03-15 09:15;234
2016-03-15 09:30;228,5
2016-03-15 09:45;203,8
2016-03-15 10:00;208,55
2016-03-15 10:15;209,95
2016-03-15 10:30;271,25
2016-03-15 10:45;247,5
2016-03-15 11:00;240,1
2016-03-15 11:15;233,9
2016-03-15 11:30;251,15
2016-03-15 11:45;256
2016-03-15 12:00;244,55
2016-03-15 12:15;254,4
2016-03-15 12:30;252,45
2016-03-15 12:45;233,65
2016-03-15 13:00;248,45
2016-03-15 13:15;225,2
2016-03-15 13:30;238,5
2016-03-15 13:45;218,25
2016-03-15 14:00;236,05
2016-03-15 14:15;232,55
2016-03-15 14:30;224,6
2016-03-15 14:45;212,95
2016-03-15 15:00;202,85
2016-03-15 15:15;202,65
2016-03-15 15:30;204,75
2016-03-15 15:45;198,85
2016-03-15 16:00;191,85
2016-03-15 16:15;176,65
2016-03-15 16:30;167,95
2016-03-15 16:45;173,25
2016-03-15 17:00;173,9
2016-03-15 17:15;172,55
2016-03-15 17:30;169,85
2016-03-15 17:45;165,55
2016-03-15 18:00;162,35
2016-03-15 18:15;156,5
2016-03-15 18:30;154,6
2016-03-15 18:45;151,1
2016-03-15 19:00;153,35
2016-03-15 19:15;149,8
2016-03-15 19:30;144,75
2016-03-15 19:45;136,05
2016-03-15 20:00;131,35
2016-03-15 20:15;122,6
2016-03-15 20:30;122,8
2016-03-15 20:45;118,3
2016-03-15 21:00;115,1
2016-03-15 21:15;112,9
2016-03-15 21:30;111,2
2016-03-15 21:45;109,6
2016-03-15 22:00;107,3
2016-03-15 22:15;102,65
2016-03-15 22:30;101,35
2016-03-15 22:45;103,6
2016-03-15 23:00;101,9
2016-03-15 23:15;99,6
2016-03-15 23:30;92,15
2016-03-15 23:45;91,4
2016-03-16 00:00;89,95
2016-03-16 00:15;89,2
2016-03-16 00:30;88,8
2016-03-16 00:45;91,65
2016-03-16 01:00;88,1
2016-03-16 01:15;89,3
2016-03-16 01:30;84
2016-03-16 01:45;105,35
2016-03-16 02:00;110,6
2016-03-16 02:15;104,4
2016-03-16 02:30;97,05
2016-03-16 02:45;95,25
2016-03-16 03:00;95,8
2016-03-16 03:15;91,8
2016-03-16 03:30;93,1
2016-03-16 03:45;94,05
2016-03-16 04:00;91,6
2016-03-16 04:15;89,3
2016-03-16 04:30;92,25
2016-03-16 04:45;88,7
2016-03-16 05:00;86,45
2016-03-16 05:15;91,05
2016-03-16 05:30;89,1
2016-03-16 05:45;89,8
2016-03-16 06:00;92,2
2016-03-16 06:15;102,6
2016-03-16 06:30;114,9
2016-03-16 06:45;115,35
2016-03-16 07:00;112,4
2016-03-16 07:15;103,35
2016-03-16 07:30;108,5
2016-03-16 07:45;115,5
2016-03-16 08:00;121
2016-03-16 08:15;125,9
2016-03-16 08:30;129,6
2016-03-16 08:45;144,9
2016-03-16 09:00;191,35
2016-03-16 09:15;243,95
2016-03-16 09:30;261,75
2016-03-16 09:45;217,9
2016-03-16 10:00;217,4
2016-03-16 10:15;209,5
2016-03-16 10:30;194,2
2016-03-16 10:45;206,65
2016-03-16 11:00;211,45
2016-03-16 11:15;229,75
2016-03-16 11:30;227,2
2016-03-16 11:45;228,95
2016-03-16 12:00;229,15
2016-03-16 12:15;260,15
2016-03-16 12:30;238,2
2016-03-16 12:45;240,65
2016-03-16 13:00;241,6
2016-03-16 13:15;241,75
2016-03-16 13:30;247,3
2016-03-16 13:45;231,45
2016-03-16 14:00;252,05
2016-03-16 14:15;250,3
2016-03-16 14:30;233,15
2016-03-16 14:45;250,45
2016-03-16 15:00;216,5
2016-03-16 15:15;221,75
2016-03-16 15:30;199,4
2016-03-16 15:45;225,3
2016-03-16 16:00;201,05
2016-03-16 16:15;204,35
2016-03-16 16:30;187,95
2016-03-16 16:45;187,55
2016-03-16 17:00;195,9
2016-03-16 17:15;184,95
2016-03-16 17:30;175,45
2016-03-16 17:45;175,75
2016-03-16 18:00;164,65
2016-03-16 18:15;166,45
2016-03-16 18:30;162,55
2016-03-16 18:45;162,55
2016-03-16 19:00;158,55
2016-03-16 19:15;152,4
2016-03-16 19:30;151,35
2016-03-16 19:45;148,7
2016-03-16 20:00;142,85
2016-03-16 20:15;130,65
2016-03-16 20:30;121
2016-03-16 20:45;117,15
2016-03-16 21:00;118,45
2016-03-16 21:15;107,65
2016-03-16 21:30;110,6
2016-03-16 21:45;104
2016-03-16 22:00;103,6
2016-03-16 22:15;102,8
2016-03-16 22:30;101,5
2016-03-16 22:45;100
2016-03-16 23:00;99,25
2016-03-16 23:15;90,5
2016-03-16 23:30;88,25
2016-03-16 23:45;87,1
2016-03-17 00:00;88,15
2016-03-17 00:15;89,2
2016-03-17 00:30;86,65
2016-03-17 00:45;86,75
2016-03-17 01:00;85,3
2016-03-17 01:15;85,45
2016-03-17 01:30;83,4
2016-03-17 01:45;82,9
2016-03-17 02:00;82,3
2016-03-17 02:15;103,5
2016-03-17 02:30;109
2016-03-17 02:45;101,2
2016-03-17 03:00;95,75
2016-03-17 03:15;91,2
2016-03-17 03:30;89,5
2016-03-17 03:45;93,15
2016-03-17 04:00;91,2
2016-03-17 04:15;88,5
2016-03-17 04:30;90,6
2016-03-17 04:45;87,85
2016-03-17 05:00;84,95
2016-03-17 05:15;89,1
2016-03-17 05:30;90,75
2016-03-17 05:45;91,5
2016-03-17 06:00;87,6
2016-03-17 06:15;105,45
2016-03-17 06:30;107,2
2016-03-17 06:45;113,7
2016-03-17 07:00;112,35
2016-03-17 07:15;111,1
2016-03-17 07:30;109,55
2016-03-17 07:45;115,85
2016-03-17 08:00;131,75
2016-03-17 08:15;130,7
2016-03-17 08:30;136,4
2016-03-17 08:45;145,75
2016-03-17 09:00;186,6
2016-03-17 09:15;224,65
2016-03-17 09:30;239,65
2016-03-17 09:45;205,5
2016-03-17 10:00;210,6
2016-03-17 10:15;197,15
2016-03-17 10:30;201,25
2016-03-17 10:45;206,15
2016-03-17 11:00;210,6
2016-03-17 11:15;214,1
2016-03-17 11:30;229,1
2016-03-17 11:45;233,55
2016-03-17 12:00;238,2
2016-03-17 12:15;247,9
2016-03-17 12:30;251,5
2016-03-17 12:45;298,75
2016-03-17 13:00;318,85
2016-03-17 13:15;257
2016-03-17 13:30;273
2016-03-17 13:45;274,85
2016-03-17 14:00;274,55
2016-03-17 14:15;257
2016-03-17 14:30;256,75
2016-03-17 14:45;237,9
2016-03-17 15:00;237,9
2016-03-17 15:15;222,3
2016-03-17 15:30;215,5
2016-03-17 15:45;209,7
2016-03-17 16:00;204
2016-03-17 16:15;200,2
2016-03-17 16:30;199,6
2016-03-17 16:45;195,85
2016-03-17 17:00;207,15
2016-03-17 17:15;192,8
2016-03-17 17:30;188,1
2016-03-17 17:45;190,35
2016-03-17 18:00;183,75
2016-03-17 18:15;180,05
2016-03-17 18:30;178,2
2016-03-17 18:45;177,8
2016-03-17 19:00;172
2016-03-17 19:15;164,55
2016-03-17 19:30;154,05
2016-03-17 19:45;148,35
2016-03-17 20:00;147,4
2016-03-17 20:15;145,2
2016-03-17 20:30;143,8
2016-03-17 20:45;138,5
2016-03-17 21:00;133,85
2016-03-17 21:15;127,55
2016-03-17 21:30;131
2016-03-17 21:45;127,3
2016-03-17 22:00;117,9
2016-03-17 22:15;118,5
2016-03-17 22:30;120,4
2016-03-17 22:45;113,2
2016-03-17 23:00;112,6
2016-03-17 23:15;109,4
2016-03-17 23:30;108,55
2016-03-17 23:45;104,55
2016-03-18 00:00;107,7
2016-03-18 00:15;107,3
2016-03-18 00:30;105
2016-03-18 00:45;105,9
2016-03-18 01:00;97,25
2016-03-18 01:15;92,15
2016-03-18 01:30;86,75
2016-03-18 01:45;88,15
2016-03-18 02:00;87,2
2016-03-18 02:15;88,15
2016-03-18 02:30;85,95
2016-03-18 02:45;84,2
2016-03-18 03:00;115,55
2016-03-18 03:15;112,1
2016-03-18 03:30;105,25
2016-03-18 03:45;99,4
2016-03-18 04:00;97,2
2016-03-18 04:15;91,4
2016-03-18 04:30;93,1
2016-03-18 04:45;87,45
2016-03-18 05:00;87,95
2016-03-18 05:15;89,45
2016-03-18 05:30;91,3
2016-03-18 05:45;92,05
2016-03-18 06:00;88,05
2016-03-18 06:15;101,45
2016-03-18 06:30;108,1
2016-03-18 06:45;110,8
2016-03-18 07:00;107,45
2016-03-18 07:15;111,35
2016-03-18 07:30;109,65
2016-03-18 07:45;117,45
2016-03-18 08:00;126,15
2016-03-18 08:15;123,2
2016-03-18 08:30;140,15
2016-03-18 08:45;149,3
2016-03-18 09:00;166,8
2016-03-18 09:15;231
2016-03-18 09:30;250,15
2016-03-18 09:45;240,1
2016-03-18 10:00;204,05
2016-03-18 10:15;212,25
2016-03-18 10:30;203,65
2016-03-18 10:45;219,2
2016-03-18 11:00;211,35
2016-03-18 11:15;229,35
2016-03-18 11:30;215,45
2016-03-18 11:45;225,15
2016-03-18 12:00;223
2016-03-18 12:15;238,5
2016-03-18 12:30;247,8
2016-03-18 12:45;233,95
2016-03-18 13:00;252,2
2016-03-18 13:15;237,35
2016-03-18 13:30;239,8
2016-03-18 13:45;241,2
2016-03-18 14:00;240,55
2016-03-18 14:15;239,35
2016-03-18 14:30;218
2016-03-18 14:45;223,8
2016-03-18 15:00;213,4
2016-03-18 15:15;216,35
2016-03-18 15:30;203,45
2016-03-18 15:45;207,15
2016-03-18 16:00;199,95
2016-03-18 16:15;167,2
2016-03-18 16:30;156,9
2016-03-18 16:45;161,8
2016-03-18 17:00;166,6
2016-03-18 17:15;160,9
2016-03-18 17:30;152,25
2016-03-18 17:45;147,9
2016-03-18 18:00;158,3
2016-03-18 18:15;157,4
2016-03-18 18:30;155,85
2016-03-18 18:45;147,6
2016-03-18 19:00;152,2
2016-03-18 19:15;147,2
2016-03-18 19:30;144,35
2016-03-18 19:45;136,05
2016-03-18 20:00;132,65
2016-03-18 20:15;129,35
2016-03-18 20:30;126
2016-03-18 20:45;121,35
2016-03-18 21:00;117,95
2016-03-18 21:15;110,25
2016-03-18 21:30;108,55
2016-03-18 21:45;103,15
2016-03-18 22:00;101,3
2016-03-18 22:15;95,95
2016-03-18 22:30;92,2
2016-03-18 22:45;89,5
2016-03-18 23:00;84,7
2016-03-18 23:15;83,65
2016-03-18 23:30;79,75
2016-03-18 23:45;79,2
2016-03-19 00:00;78,5
2016-03-19 00:15;79,55
2016-03-19 00:30;76,65
2016-03-19 00:45;78,5
2016-03-19 01:00;75,6
2016-03-19 01:15;77,3
2016-03-19 01:30;79,15
2016-03-19 01:45;82,6
2016-03-19 02:00;81,2
2016-03-19 02:15;81,25
2016-03-19 02:30;80,6
2016-03-19 02:45;83,2
2016-03-19 03:00;83,5
2016-03-19 03:15;84,55
2016-03-19 03:30;86,25
2016-03-19 03:45;88,55
2016-03-19 04:00;81,5
2016-03-19 04:15;76,9
2016-03-19 04:30;81,7
2016-03-19 04:45;75
2016-03-19 05:00;76,75
2016-03-19 05:15;76,05
2016-03-19 05:30;78,9
2016-03-19 05:45;77,65
2016-03-19 06:00;79
2016-03-19 06:15;79,6
2016-03-19 06:30;77,8
2016-03-19 06:45;75,6
2016-03-19 07:00;75,6
2016-03-19 07:15;71,6
2016-03-19 07:30;71,8
2016-03-19 07:45;71,6
2016-03-19 08:00;72,2
2016-03-19 08:15;69,65
2016-03-19 08:30;69,3
2016-03-19 08:45;68,25
2016-03-19 09:00;65,45
2016-03-19 09:15;69,2
2016-03-19 09:30;69,9
2016-03-19 09:45;75,35
2016-03-19 10:00;73
2016-03-19 10:15;67,95
2016-03-19 10:30;72,35
2016-03-19 10:45;69,9
2016-03-19 11:00;68,4
2016-03-19 11:15;69,6
2016-03-19 11:30;66,65
2016-03-19 11:45;68,95
2016-03-19 12:00;70,65
2016-03-19 12:15;73,45
2016-03-19 12:30;75,3
2016-03-19 12:45;79,4
2016-03-19 13:00;80,9
2016-03-19 13:15;77,95
2016-03-19 13:30;80,65
2016-03-19 13:45;80
2016-03-19 14:00;75,85
2016-03-19 14:15;71,9
2016-03-19 14:30;74,35
2016-03-19 14:45;74,25
2016-03-19 15:00;76,45
2016-03-19 15:15;75,1
2016-03-19 15:30;74,7
2016-03-19 15:45;74,3
2016-03-19 16:00;76,7
2016-03-19 16:15;75,9
2016-03-19 16:30;74,4
2016-03-19 16:45;78,5
2016-03-19 17:00;77,5
2016-03-19 17:15;78,85
2016-03-19 17:30;78,5
2016-03-19 17:45;82,85
2016-03-19 18:00;79,95
2016-03-19 18:15;83,95
2016-03-19 18:30;80,65
2016-03-19 18:45;83,85
2016-03-19 19:00;89,85
2016-03-19 19:15;93,35
2016-03-19 19:30;92,9
2016-03-19 19:45;98,85
2016-03-19 20:00;100,4
2016-03-19 20:15;102,35
2016-03-19 20:30;97,4
2016-03-19 20:45;96,25
2016-03-19 21:00;100,75
2016-03-19 21:15;98,6
2016-03-19 21:30;88,2
2016-03-19 21:45;86,15
2016-03-19 22:00;82,15
2016-03-19 22:15;79,7
2016-03-19 22:30;79,1
2016-03-19 22:45;82,3
2016-03-19 23:00;78
2016-03-19 23:15;78,7
2016-03-19 23:30;77,4
2016-03-19 23:45;76,4
2016-03-20 00:00;76,05
2016-03-20 00:15;75,2
2016-03-20 00:30;75
2016-03-20 00:45;72,2
2016-03-20 01:00;74
2016-03-20 01:15;73,9
2016-03-20 01:30;73,85
2016-03-20 01:45;71,7
2016-03-20 02:00;72,75
2016-03-20 02:15;71,65
2016-03-20 02:30;73,3
2016-03-20 02:45;73,9
2016-03-20 03:00;76,2
2016-03-20 03:15;73,9
2016-03-20 03:30;75
2016-03-20 03:45;78,25
2016-03-20 04:00;75,95
2016-03-20 04:15;73,7
2016-03-20 04:30;82,2
2016-03-20 04:45;79,4
2016-03-20 05:00;76
2016-03-20 05:15;77,75
2016-03-20 05:30;81,35
2016-03-20 05:45;79,75
2016-03-20 06:00;81,15
2016-03-20 06:15;77,4
2016-03-20 06:30;79,4
2016-03-20 06:45;76,7
2016-03-20 07:00;77,4
2016-03-20 07:15;75,4
2016-03-20 07:30;77,3
2016-03-20 07:45;73,9
2016-03-20 08:00;74,25
2016-03-20 08:15;71,45
2016-03-20 08:30;68,2
2016-03-20 08:45;66,15
2016-03-20 09:00;62,85
2016-03-20 09:15;66,5
2016-03-20 09:30;67,6
2016-03-20 09:45;72,9
2016-03-20 10:00;69,65
2016-03-20 10:15;61,05
2016-03-20 10:30;62,3
2016-03-20 10:45;65,8
2016-03-20 11:00;66,65
2016-03-20 11:15;63,8
2016-03-20 11:30;64
2016-03-20 11:45;65,55
2016-03-20 12:00;64,15
2016-03-20 12:15;67,45
2016-03-20 12:30;64,75
2016-03-20 12:45;65,95
2016-03-20 13:00;64,7
2016-03-20 13:15;68,65
2016-03-20 13:30;67,95
2016-03-20 13:45;69,05
2016-03-20 14:00;68,95
2016-03-20 14:15;69,9
2016-03-20 14:30;69,7
2016-03-20 14:45;70,8
2016-03-20 15:00;67,35
2016-03-20 15:15;69,35
2016-03-20 15:30;66,8
2016-03-20 15:45;67,7
2016-03-20 16:00;65,55
2016-03-20 16:15;66,8
2016-03-20 16:30;66,05
2016-03-20 16:45;68,05
2016-03-20 17:00;71,4
2016-03-20 17:15;72,5
2016-03-20 17:30;75,3
2016-03-20 17:45;77,8
2016-03-20 18:00;76,85
2016-03-20 18:15;82,15
2016-03-20 18:30;79,5
2016-03-20 18:45;80,6
2016-03-20 19:00;83,25
2016-03-20 19:15;81
2016-03-20 19:30;80,4
2016-03-20 19:45;86,6
2016-03-20 20:00;84,05
2016-03-20 20:15;85,15
2016-03-20 20:30;84,3
2016-03-20 20:45;82,8
2016-03-20 21:00;85,7
2016-03-20 21:15;84,85
2016-03-20 21:30;84
2016-03-20 21:45;82,5
2016-03-20 22:00;83,65
2016-03-20 22:15;79,1
2016-03-20 22:30;80
2016-03-20 22:45;81,25
2016-03-20 23:00;81,15
2016-03-20 23:15;87,6
2016-03-20 23:30;85,55
2016-03-20 23:45;86,9

